Theta_e
344 343 341 341 341 341 341 340 339 338 337 334 333 334 334 335 335 336 335 333 333 334 335 333 332 334 333 333 335 335 338 339
345 345 343 342 341 341 341 340 340 339 339 337 335 334 334 335 336 337 337 335 333 334 335 334 337 338 335 334 335 335 337 338
342 344 344 343 343 342 341 341 341 341 341 340 338 338 340 340 338 338 338 336 336 339 338 339 340 339 335 335 335 339 339 338
333 342 344 345 344 344 342 341 341 341 341 341 341 340 339 341 341 338 338 338 338 341 341 342 342 342 340 336 338 339 339 339
318 332 342 345 345 344 343 342 341 341 342 342 342 342 342 342 341 340 341 341 342 342 342 342 343 343 342 340 339 339 338 338
315 318 342 344 345 344 344 344 344 343 343 344 342 342 341 340 341 343 341 340 342 342 342 341 342 342 342 340 337 338 338 338
317 331 340 344 345 345 345 344 343 342 343 343 342 340 340 340 339 340 341 340 340 341 341 341 343 342 341 341 341 339 338 338
324 332 339 343 343 343 343 342 342 340 342 340 342 340 338 338 339 338 339 340 340 340 341 341 342 341 344 341 341 340 339 336
316 322 330 334 335 339 339 340 339 339 339 338 338 338 339 338 338 337 338 338 337 337 337 340 342 341 340 339 341 339 339 338
308 310 315 317 319 322 323 326 328 329 330 330 330 330 331 330 331 333 336 338 339 338 338 336 337 338 339 340 339 339 338 337
303 304 306 309 312 312 314 314 315 315 315 316 317 319 320 321 323 325 327 329 333 338 339 338 339 339 339 339 338 338 338 337
299 300 301 304 306 307 308 308 309 309 308 310 311 312 313 313 314 316 317 318 323 329 332 335 338 338 338 338 338 337 336 335
297 297 298 299 300 302 305 305 306 304 304 305 307 308 310 311 311 312 313 314 316 318 325 331 335 337 337 334 328 332 329 331
297 296 296 297 298 299 300 301 303 303 301 302 302 303 305 306 308 308 308 310 313 315 317 322 332 333 333 333 332 331 328 330
295 295 294 294 296 298 299 299 300 301 300 301 301 301 302 303 305 307 307 307 309 312 314 318 323 331 332 331 330 331 332 328
295 294 293 294 294 295 297 296 296 297 298 298 299 299 300 301 302 303 303 305 307 308 310 312 316 321 327 332 332 330 334 334
293 294 293 293 293 294 294 294 294 295 296 297 297 298 298 298 298 299 300 301 303 306 308 310 311 314 319 326 331 331 331 329
294 293 292 292 293 292 292 292 293 293 293 294 294 295 295 295 295 296 297 298 299 301 303 306 310 312 314 317 321 329 329 329
292 292 292 291 292 292 291 292 292 292 291 291 292 292 293 293 293 294 295 296 297 299 300 303 305 308 311 314 316 319 327 326
291 291 291 291 291 291 291 291 291 290 290 290 290 290 291 291 291 292 292 294 295 296 298 301 304 306 309 312 315 317 320 325
Wind_Speed
11 14 17 19 20 22 22 21 20 18 18 20 21 22 22 22 23 23 23 22 21 21 20 19 18 16 14 14 12 12 10 11
12 14 17 19 19 19 19 19 19 20 19 19 20 21 22 23 23 23 23 22 21 20 20 19 18 16 15 14 13 13 12 12
15 16 17 18 18 18 18 19 18 18 18 19 20 20 20 21 23 24 24 23 22 21 20 19 18 16 15 15 15 13 13 13
19 17 18 18 18 17 17 17 17 18 19 18 19 22 22 20 21 24 24 23 22 21 19 19 18 15 15 17 16 14 14 14
18 20 20 20 19 17 16 15 16 17 17 18 19 19 19 21 21 21 20 22 20 21 20 20 19 17 17 17 16 16 15 14
21 19 21 21 20 19 17 15 15 15 16 16 16 19 20 22 18 18 20 21 19 19 20 22 22 21 19 20 21 18 15 14
16 13 19 21 20 20 16 13 13 13 13 14 15 17 19 19 19 19 20 17 20 21 22 22 25 27 25 21 21 21 20 17
10 7 10 13 18 20 16 15 13 10 10 11 13 15 15 15 16 17 19 22 23 23 24 23 24 27 28 30 24 21 21 23
14 8 3 8 7 11 13 14 13 12 10 11 12 12 15 17 16 17 19 19 21 24 27 27 23 24 28 30 31 31 25 25
18 16 11 7 5 5 6 7 9 9 9 9 8 10 11 10 10 13 17 18 20 23 25 26 28 25 25 26 31 33 34 30
22 22 19 11 8 6 5 5 4 3 3 4 4 4 6 7 9 12 15 14 12 15 24 28 25 26 27 23 25 28 28 28
23 23 22 16 10 6 6 8 7 5 5 4 2 3 4 6 7 9 10 11 13 17 19 20 30 26 21 21 23 24 23 27
26 26 26 22 19 13 8 10 10 11 11 11 8 7 5 5 6 7 9 10 12 13 15 16 20 22 21 25 36 28 30 31
26 24 23 23 17 16 10 11 8 10 14 13 14 13 10 7 6 7 7 7 10 11 11 10 12 19 12 8 3 19 34 35
22 22 21 21 18 15 16 11 15 15 17 16 17 15 14 10 9 8 9 8 8 11 11 12 13 11 27 10 3 6 9 22
20 19 20 20 19 19 19 15 18 20 18 17 16 15 15 13 13 11 11 11 10 10 11 11 11 15 15 29 26 8 4 4
18 17 18 19 19 20 17 21 17 18 17 16 15 13 14 15 14 14 14 14 13 12 12 14 15 14 19 13 18 22 21 5
15 16 17 22 24 24 24 17 15 17 21 19 20 19 17 16 18 15 15 15 16 16 15 15 17 19 20 21 22 13 12 11
19 18 17 18 19 18 19 16 15 13 17 21 21 19 19 18 20 18 18 18 18 17 17 17 17 20 23 21 24 28 25 21
17 18 19 19 17 16 16 14 15 14 17 18 17 17 17 19 19 18 18 18 20 18 18 18 18 21 24 26 26 25 29 27
Wind_Direction
223 215 209 215 221 221 218 216 216 216 216 215 213 213 211 210 207 205 204 204 203 204 204 203 205 207 207 208 213 211 206 209
240 236 226 222 223 225 227 227 224 219 221 221 220 219 217 215 214 213 212 210 209 208 208 208 208 210 210 212 217 221 216 217
250 243 237 234 238 235 232 229 230 229 229 226 223 219 220 221 219 218 217 217 216 215 212 210 210 216 218 219 221 219 220 221
285 258 247 240 239 242 239 238 235 232 231 228 226 224 221 219 222 223 224 224 223 223 220 216 214 215 220 222 227 227 225 226
297 264 246 235 236 238 237 239 237 238 238 235 231 228 229 229 225 224 226 228 227 227 224 223 218 216 218 220 227 232 232 233
304 269 244 235 229 230 233 231 238 243 242 237 236 235 230 231 229 228 228 227 225 225 226 224 223 222 224 227 230 234 239 240
306 279 244 232 222 227 226 233 239 236 232 226 228 241 242 239 240 239 235 234 234 232 230 230 228 229 228 229 233 235 238 242
328 263 232 229 229 223 225 221 228 225 218 221 227 230 241 249 247 245 246 246 246 243 240 236 230 230 229 232 231 234 240 244
24 21 264 227 192 208 203 208 206 200 198 204 215 221 217 228 242 246 245 249 253 251 250 241 234 229 230 232 233 234 233 241
29 33 59 74 88 127 150 162 177 180 187 198 206 216 228 232 227 227 236 242 246 247 253 245 242 234 229 225 231 237 239 234
30 28 29 29 49 64 85 104 110 116 147 157 181 215 238 243 246 254 258 251 245 252 244 243 237 233 232 230 231 236 246 246
31 28 28 28 21 18 35 42 45 42 24 24 358 296 271 263 256 256 265 269 261 254 264 262 238 237 226 232 228 238 240 253
28 25 22 24 21 14 4 19 6 16 16 7 4 353 328 313 296 281 267 263 261 258 254 266 255 236 227 235 255 261 249 243
26 25 22 26 30 26 11 338 357 349 354 355 2 357 352 347 339 332 310 287 276 267 258 259 257 241 226 247 169 221 241 238
21 21 22 22 23 31 30 29 14 351 345 349 351 350 348 356 354 347 329 309 296 288 278 252 245 227 211 194 171 221 234 238
32 19 18 18 23 26 37 38 18 341 334 337 341 347 342 357 353 346 334 315 304 298 289 279 263 247 259 218 225 185 210 204
27 29 18 21 18 32 27 28 23 330 331 339 348 345 344 350 348 344 339 325 312 302 295 284 273 263 252 258 248 232 230 225
25 32 20 16 21 21 27 9 359 343 347 344 351 348 340 349 343 344 338 326 319 313 301 286 276 271 265 260 255 247 227 224
10 14 21 22 18 27 11 5 355 355 350 357 350 340 341 340 341 343 339 329 321 315 307 299 286 277 268 258 258 258 254 245
14 13 9 11 14 16 22 2 4 4 7 358 348 338 339 340 342 343 340 334 329 323 317 305 300 291 277 266 258 258 253 245